When you browse on this site, cookies collect data to enhance your experience and personalize the content and advertising you see.
Visit our Privacy Policy to learn more. By continuing to use the site, you agree to this use of cookies and data.

Meteo pe oră la Dzieraznia

Astăzi, 26 Septembrie, Sâmbătă

Timp Temperatura Precipitaţii Vânt Presiune Umiditate
00:00 +17°C° 0.5 mm 3 m/s 725 mmHg 85%
01:00 +17°C° 0.5 mm 3 m/s 725 mmHg 85%
02:00 +17°C° 0.3 mm 4 m/s 724 mmHg 84%
03:00 +17°C° 0.3 mm 5 m/s 724 mmHg 82%
04:00 +17°C° 0.3 mm 5 m/s 723 mmHg 81%
05:00 +17°C° 0 mm 6 m/s 723 mmHg 78%
06:00 +17°C° 0 mm 6 m/s 722 mmHg 76%
07:00 +19°C° 0 mm 6 m/s 722 mmHg 73%
08:00 +18°C° 0.2 mm 7 m/s 722 mmHg 72%
09:00 +20°C° 0.2 mm 8 m/s 722 mmHg 71%
10:00 +20°C° 0.2 mm 8 m/s 723 mmHg 71%
11:00 +20°C° 0.4 mm 7 m/s 723 mmHg 70%
12:00 +19°C° 0.4 mm 6 m/s 723 mmHg 70%
13:00 +19°C° 0.4 mm 5 m/s 724 mmHg 70%
14:00 +19°C° 0 mm 5 m/s 724 mmHg 68%
15:00 +18°C° 0 mm 4 m/s 725 mmHg 66%
16:00 +18°C° 0 mm 4 m/s 725 mmHg 64%
17:00 +17°C° 0 mm 4 m/s 725 mmHg 65%
18:00 +14°C° 0 mm 4 m/s 726 mmHg 66%
19:00 +12°C° 0 mm 4 m/s 726 mmHg 68%
20:00 +12°C° 0.2 mm 4 m/s 726 mmHg 69%
21:00 +11°C° 0.2 mm 4 m/s 727 mmHg 69%
22:00 +10°C° 0.2 mm 4 m/s 727 mmHg 70%
23:00 +10°C° 0.3 mm 4 m/s 727 mmHg 71%

Mâine, 27 Septembrie, Duminică

Timp Temperatura Precipitaţii Vânt Presiune Umiditate
00:00 +9°C° 0.3 mm 5 m/s 727 mmHg 72%
01:00 +8°C° 0.3 mm 5 m/s 727 mmHg 73%
02:00 +8°C° 1.3 mm 5 m/s 727 mmHg 77%
03:00 +8°C° 1.3 mm 5 m/s 726 mmHg 82%
04:00 +7°C° 1.3 mm 5 m/s 726 mmHg 86%
05:00 +7°C° 1.7 mm 5 m/s 727 mmHg 86%
06:00 +7°C° 1.7 mm 5 m/s 727 mmHg 86%
07:00 +7°C° 1.7 mm 5 m/s 727 mmHg 87%
08:00 +8°C° 0.5 mm 5 m/s 728 mmHg 83%
09:00 +9°C° 0.5 mm 5 m/s 729 mmHg 79%
10:00 +10°C° 0.5 mm 5 m/s 729 mmHg 75%
11:00 +10°C° 0 mm 6 m/s 730 mmHg 71%
12:00 +11°C° 0 mm 6 m/s 731 mmHg 67%
13:00 +13°C° 0 mm 6 m/s 731 mmHg 63%
14:00 +13°C° 0 mm 5 m/s 732 mmHg 63%
15:00 +13°C° 0 mm 5 m/s 732 mmHg 64%
16:00 +12°C° 0 mm 4 m/s 732 mmHg 65%
17:00 +12°C° 0 mm 4 m/s 733 mmHg 67%
18:00 +11°C° 0 mm 4 m/s 734 mmHg 69%
19:00 +10°C° 0 mm 4 m/s 734 mmHg 72%
20:00 +9°C° 0 mm 3 m/s 735 mmHg 72%
21:00 +9°C° 0 mm 3 m/s 736 mmHg 73%
22:00 +9°C° 0 mm 3 m/s 736 mmHg 73%
23:00 +8°C° 0 mm 3 m/s 736 mmHg 75%

Poimâine, 28 Septembrie, Luni

Timp Temperatura Precipitaţii Vânt Presiune Umiditate
00:00 +8°C° 0 mm 2 m/s 736 mmHg 76%
01:00 +7°C° 0 mm 2 m/s 736 mmHg 78%
02:00 +7°C° 0 mm 2 m/s 737 mmHg 79%
03:00 +7°C° 0 mm 2 m/s 737 mmHg 80%
04:00 +6°C° 0 mm 2 m/s 737 mmHg 81%
05:00 +7°C° 0 mm 3 m/s 737 mmHg 78%
06:00 +8°C° 0 mm 3 m/s 737 mmHg 74%
07:00 +8°C° 0 mm 4 m/s 737 mmHg 71%
08:00 +8°C° 0.1 mm 4 m/s 737 mmHg 75%
09:00 +10°C° 0.1 mm 4 m/s 737 mmHg 78%
10:00 +10°C° 0.1 mm 4 m/s 737 mmHg 82%
11:00 +10°C° 0.1 mm 4 m/s 737 mmHg 80%
12:00 +11°C° 0.1 mm 4 m/s 736 mmHg 79%
13:00 +10°C° 0.1 mm 5 m/s 736 mmHg 77%
14:00 +12°C° 0 mm 4 m/s 736 mmHg 77%
15:00 +12°C° 0 mm 4 m/s 736 mmHg 77%
16:00 +12°C° 0 mm 3 m/s 736 mmHg 78%
17:00 +12°C° 0 mm 3 m/s 736 mmHg 82%
18:00 +12°C° 0 mm 2 m/s 736 mmHg 85%
19:00 +11°C° 0 mm 1 m/s 736 mmHg 89%
20:00 +11°C° 0 mm 1 m/s 736 mmHg 89%
21:00 +11°C° 0 mm 1 m/s 736 mmHg 89%
22:00 +11°C° 0 mm 1 m/s 736 mmHg 89%
23:00 +10°C° 0 mm 1 m/s 736 mmHg 90%

29 Septembrie, Marţi

Timp Temperatura Precipitaţii Vânt Presiune Umiditate
00:00 +10°C° 0 mm 1 m/s 736 mmHg 90%
01:00 +9°C° 0 mm 2 m/s 735 mmHg 91%
02:00 +9°C° 0 mm 2 m/s 735 mmHg 90%
03:00 +9°C° 0 mm 2 m/s 735 mmHg 90%
04:00 +9°C° 0 mm 3 m/s 735 mmHg 89%
05:00 +9°C° 0 mm 3 m/s 736 mmHg 89%
06:00 +10°C° 0 mm 3 m/s 736 mmHg 88%
07:00 +10°C° 0 mm 3 m/s 736 mmHg 87%
08:00 +11°C° 0 mm 3 m/s 736 mmHg 82%
09:00 +12°C° 0 mm 4 m/s 736 mmHg 77%
10:00 +13°C° 0 mm 4 m/s 736 mmHg 72%
11:00 +14°C° 0 mm 4 m/s 736 mmHg 67%
12:00 +15°C° 0 mm 4 m/s 736 mmHg 61%
13:00 +16°C° 0 mm 5 m/s 737 mmHg 56%
14:00 +17°C° 0 mm 4 m/s 736 mmHg 57%
15:00 +17°C° 0 mm 4 m/s 736 mmHg 58%
16:00 +15°C° 0 mm 4 m/s 736 mmHg 59%
17:00 +14°C° 0 mm 3 m/s 737 mmHg 64%
18:00 +14°C° 0 mm 2 m/s 737 mmHg 69%
19:00 +13°C° 0 mm 2 m/s 737 mmHg 74%
20:00 +13°C° 0 mm 2 m/s 737 mmHg 76%
21:00 +12°C° 0 mm 3 m/s 737 mmHg 78%
22:00 +12°C° 0 mm 3 m/s 737 mmHg 80%
23:00 +12°C° 0.2 mm 4 m/s 737 mmHg 83%

30 Septembrie, Miercuri

Timp Temperatura Precipitaţii Vânt Presiune Umiditate
00:00 +11°C° 0.2 mm 4 m/s 737 mmHg 86%
01:00 +11°C° 0.2 mm 4 m/s 737 mmHg 89%
02:00 +10°C° 0.2 mm 5 m/s 737 mmHg 89%
03:00 +10°C° 0.2 mm 5 m/s 737 mmHg 88%
04:00 +10°C° 0.2 mm 5 m/s 737 mmHg 88%
05:00 +10°C° 0.1 mm 5 m/s 736 mmHg 88%
06:00 +10°C° 0.1 mm 5 m/s 736 mmHg 88%
07:00 +11°C° 0.1 mm 4 m/s 736 mmHg 89%
08:00 +11°C° 0.4 mm 4 m/s 736 mmHg 87%
09:00 +11°C° 0.4 mm 4 m/s 736 mmHg 85%
10:00 +12°C° 0.4 mm 4 m/s 736 mmHg 84%
11:00 +12°C° 0.2 mm 4 m/s 736 mmHg 84%
12:00 +12°C° 0.2 mm 4 m/s 735 mmHg 84%
13:00 +12°C° 0.2 mm 4 m/s 735 mmHg 85%
14:00 +12°C° 0.2 mm 4 m/s 735 mmHg 85%
15:00 +12°C° 0.2 mm 4 m/s 735 mmHg 86%
16:00 +12°C° 0.2 mm 4 m/s 735 mmHg 87%
17:00 +12°C° 0.1 mm 4 m/s 735 mmHg 88%
18:00 +12°C° 0.1 mm 4 m/s 735 mmHg 89%
19:00 +12°C° 0.1 mm 4 m/s 735 mmHg 90%
20:00 +12°C° 0.1 mm 4 m/s 735 mmHg 90%
21:00 +12°C° 0.1 mm 5 m/s 735 mmHg 90%
22:00 +12°C° 0.1 mm 5 m/s 735 mmHg 90%
23:00 +12°C° 0.3 mm 5 m/s 735 mmHg 90%

1 Octombrie, Joi

Timp Temperatura Precipitaţii Vânt Presiune Umiditate
00:00 +12°C° 0.3 mm 5 m/s 735 mmHg 90%
01:00 +12°C° 0.3 mm 5 m/s 735 mmHg 90%
02:00 +11°C° 0 mm 4 m/s 735 mmHg 91%
03:00 +11°C° 0 mm 4 m/s 735 mmHg 91%
04:00 +11°C° 0 mm 4 m/s 735 mmHg 91%
05:00 +11°C° 0 mm 4 m/s 735 mmHg 91%
06:00 +11°C° 0 mm 4 m/s 735 mmHg 91%
07:00 +11°C° 0 mm 3 m/s 735 mmHg 90%
08:00 +12°C° 0 mm 3 m/s 735 mmHg 86%
09:00 +13°C° 0 mm 3 m/s 735 mmHg 81%
10:00 +14°C° 0 mm 3 m/s 735 mmHg 76%
11:00 +16°C° 0 mm 3 m/s 735 mmHg 72%
12:00 +17°C° 0 mm 2 m/s 735 mmHg 69%
13:00 +17°C° 0 mm 2 m/s 735 mmHg 65%
14:00 +17°C° 0 mm 2 m/s 735 mmHg 65%
15:00 +18°C° 0 mm 1 m/s 735 mmHg 66%
16:00 +18°C° 0 mm 1 m/s 735 mmHg 67%
17:00 +16°C° 0 mm 1 m/s 735 mmHg 71%
18:00 +15°C° 0 mm 2 m/s 735 mmHg 76%
19:00 +14°C° 0 mm 2 m/s 735 mmHg 81%
20:00 +13°C° 0 mm 2 m/s 736 mmHg 84%
21:00 +12°C° 0 mm 2 m/s 736 mmHg 87%
22:00 +12°C° 0 mm 2 m/s 736 mmHg 90%
23:00 +12°C° 0 mm 2 m/s 736 mmHg 89%
Arată mai mult